Regional Weather Roundup
Issued by NWS San Angelo, TX

Home | Current Version | Previous Version | Text Only | Print | Product List | Glossary On
Versions: 1 2 3 4 5 6 7 8 9 10 11 12 13 14 15 16 17 18 19 20 21 22 23 24 25 26 27 28 29 30 31 32 33 34 35 36 37 38 39 40 41 42 43 44 45 46 47 48 49 50
000
ASUS44 KSJT 270410
RWRSJT
WEST CENTRAL TEXAS REGIONAL WEATHER ROUNDUP
NATIONAL WEATHER SERVICE SAN ANGELO TX
1100 PM CDT WED JUL 26 2017

NOTE: "FAIR" INDICATES FEW OR NO CLOUDS BELOW 12,000 FEET WITH NO
SIGNIFICANT WEATHER AND/OR OBSTRUCTIONS TO VISIBILITY.

TXZ049-054-064>066-071>073-076>078-098-099-113-114-127-128-139-140-
154-155-168>170-270500
...LOCATIONS ACROSS WEST CENTRAL TEXAS...

CITY           SKY/WX    TMP DP  RH WIND       PRES   REMARKS
SAN ANGELO     CLEAR     83  58  42 S5        30.02R
ABILENE        CLEAR     84  60  44 SE12      30.02R
DYESS AFB      NOT AVBL
JUNCTION       CLEAR     84  67  56 S10       30.06R
SWEETWATER     CLEAR     82  58  44 SE8       30.07R
BROWNWOOD      CLEAR     82  63  51 SE7       30.02R
COLEMAN        CLEAR     85  61  44 S7        30.03R
SONORA         CLEAR     86  63  45 S10       30.10R
OZONA          FAIR      81  55  41 SE7       30.08R
BRADY          NOT AVBL
$$

TEXAS PANHANDLE/OKLAHOMA PANHANDLE

CITY           SKY/WX    TMP DP  RH WIND       PRES   REMARKS
AMARILLO       PTCLDY    86  58  38 S12       30.07R
BORGER         CLOUDY    81  68  64 NW6       30.07R
CANADIAN       PTCLDY    86  66  50 SE9       29.97F
DALHART        CLOUDY    72  70  93 E16       30.13R
DUMAS          RAIN      68  66  93 SE25G41   30.09F
GUYMON         NOT AVBL
HEREFORD       MOCLDY    87  56  35 S17       30.08R
PAMPA          CLOUDY    85  61  44 CALM      30.07S
PERRYTON       CLOUDY    77  71  81 W3        30.03R
$$

SOUTHERN PANHANDLE/SOUTH PLAINS/ROLLING PLAINS

CITY           SKY/WX    TMP DP  RH WIND       PRES   REMARKS
LUBBOCK        MOCLDY    86  55  34 S13       30.05S
SNYDER         CLEAR     86  58  38 S10       30.04R
CHILDRESS      PTCLDY    90  59  35 S14       29.97R
SEMINOLE       CLEAR     80  53  38 S8        30.09R
$$

PERMIAN BASIN

CITY           SKY/WX    TMP DP  RH WIND       PRES   REMARKS
MIDLAND        CLEAR     85  56  37 S12       30.06R
ODESSA         CLEAR     87  53  31 S12       30.07R
WINK           CLEAR     87  54  32 SE12      30.02R
$$

FAR WEST/SOUTHWEST MOUNTAINS/TRANS PECOS

CITY           SKY/WX    TMP DP  RH WIND       PRES   REMARKS
ALPINE         CLEAR     79  55  44 SE10      30.21R
DRYDEN           N/A     88  57  34 SE13      30.01R
EL PASO        PTCLDY    83  64  52 CALM      30.08R
FORT STOCKTON  CLEAR     84  56  38 SE10G20   30.05R
GUADALUPE PASS CLOUDY    77  61  57 N13       30.23R
MARFA          CLEAR     76  57  51 E12       30.19R
PECOS          CLEAR     87  55  32 E12       30.01R
$$

DALLAS/FORT WORTH METROPLEX

CITY           SKY/WX    TMP DP  RH WIND       PRES   REMARKS
DFW AIRPORT    CLOUDY    90  71  53 SE15      29.97S
FTW MEACHAM    CLOUDY    89  70  53 SE13G21   29.98R
DAL-EXECUTIVE  PTCLDY    87  72  60 SE9       29.99S
GRAND PRAIRIE  CLEAR     88  69  53 SE9       30.00S
ADDISON        CLOUDY    88  71  56 SE14G20   30.00F
MESQUITE       CLOUDY    83  71  66 SE5       30.00S
LANCASTER      CLOUDY    84  72  66 SE8       30.01R
$$

NORTH CENTRAL TEXAS

CITY           SKY/WX    TMP DP  RH WIND       PRES   REMARKS
SHRMAN/DENISON CLOUDY    85  71  61 SE12      29.99F
GAINESVILLE    CLOUDY    81  69  67 E6        30.00S
BRIDGEPORT     CLOUDY    84  65  53 S7        30.00R
DENTON         PTCLDY    86  71  60 SE10      29.98R
WAXAHACHIE     CLEAR     85  72  63 SE8       30.02R
GRANBURY       PTCLDY    89  65  44 SE9       30.00R
$$

WESTERN NORTH TEXAS

CITY           SKY/WX    TMP DP  RH WIND       PRES   REMARKS
WICHITA FALLS  MOCLDY    85  67  54 S13       29.94S
VERNON         PTCLDY    89  57  33 S9        29.96R
BRECKENRIDGE   CLOUDY    88  59  37 S9        29.99R
COMANCHE       CLEAR     82  64  53 S6        30.03R
$$

CENTRAL AND SOUTH CENTRAL TEXAS

CITY           SKY/WX    TMP DP  RH WIND       PRES   REMARKS
AUSTIN/BERGSTM PTCLDY    81  72  74 S7        30.04R
WACO           CLEAR     88  69  53 S15       30.01R
HILLSBORO      CLEAR     87  71  58 SE14      30.01R
TEMPLE         CLEAR     84  70  62 S14       30.03R
KILLEEN-GRAY   CLEAR     83  69  61 S10       30.04R
FORT HOOD      CLEAR     83  68  61 S13       30.01R
GEORGETOWN     CLEAR     85  71  63 S13       30.05R
LAGO VISTA     FAIR      82  69  63 S10       30.08R
SAN MARCOS     PTCLDY    81  63  54 S6        30.07R
NEW BRAUNFELS  CLEAR     77  68  73 S8        30.05R
RANDOLPH AFB   PTCLDY    79  72  78 S8        30.06R
SAN ANTONIO    PTCLDY    82  70  66 S13       30.06R
STINSON        MOCLDY    81  70  69 SE6       30.04R
PLEASANTON     NOT AVBL
LA GRANGE      CLEAR     81  76  84 S6        30.03R
GIDDINGS       CLEAR     79  71  76 S5        30.05R
$$

EAST TEXAS

CITY           SKY/WX    TMP DP  RH WIND       PRES   REMARKS
PARIS            N/A     82  74  76 S7        30.02S
CLARKSVILLE    NOT AVBL
TYLER          CLEAR     85  73  67 S7        30.04R
LONGVIEW       PTCLDY    80  76  87 S7        30.03S
PALESTINE      CLEAR     84  74  71 SE5       30.05S
NACOGDOCHES    CLEAR     81  73  78 CALM      30.04R
$$

TEXAS HILL COUNTRY AND EDWARDS PLATEAU

CITY           SKY/WX    TMP DP  RH WIND       PRES   REMARKS
LLANO          CLEAR     82  68  61 S6        30.08R
HORSESHOE BAY  FAIR      82  64  53 S10G21    30.05R
KERRVILLE      CLEAR     79  68  70 SE9       30.09R
FREDERICKSBRG  CLEAR     79  62  57 S5        30.09R
ROCKSPRINGS    NOT AVBL
HONDO          CLEAR     82  67  60 SE12      30.05R
UVALDE         CLEAR     80  69  68 SE7       30.05R
DEL RIO        CLEAR     87  67  51 SE15G24   29.98R
$$

SOUTHEAST TEXAS

CITY           SKY/WX    TMP DP  RH WIND       PRES   REMARKS
COLLEGE STN    CLEAR     84  73  69 S10       30.03R
CALDWELL       NOT AVBL
CROCKETT       CLEAR     81  73  78 CALM      30.08R
BRENHAM        CLEAR     84  74  71 S7        30.05R
HUNTSVILLE     CLEAR     84  73  69 S3        30.05R
CONROE         PTCLDY    81  73  76 SE5       30.06R
HOUSTON BUSH   PTCLDY    84  73  69 S6        30.05R
HOUSTON HOBBY  PTCLDY    83  74  74 S6        30.05R
PERLAND        CLEAR     81  74  79 CALM      30.07R
WHARTON        CLEAR     78  73  86 SE3       30.06S
$$

THE UPPER TEXAS COAST

CITY           SKY/WX    TMP DP  RH WIND       PRES   REMARKS
ORANGE         CLEAR     82  76  83 S5        30.07F
PORT ARTHUR    CLEAR     76  74  93 S6        30.05F
GALVESTON      CLEAR     84  77  79 S10       30.06S
ANGLETON       CLEAR     79  76  90 SE3       30.06R
BAY CITY       CLEAR     80  76  89 SE3       30.06R
$$

TEXAS COASTAL BEND, RIO GRANDE PLAINS DEEP SOUTH TEXAS

CITY           SKY/WX    TMP DP  RH WIND       PRES   REMARKS
VICTORIA       CLEAR     80  71  74 S8        30.06R
BEEVILLE       FAIR      80  75  84 SE7       30.05R
ROCKPORT       CLEAR     83  74  74 SE9       30.05R
PORT ARANSAS   CLEAR     83  74  76 S10G17    30.06R
PORT LAVACA    CLEAR     78  73  84 S3        30.07R
CORPUS CHRISTI PTCLDY    81  75  82 SE8       30.05R
KINGSVILLE NAS PTCLDY    81  75  82 SE12      30.05R
COTULLA        PTCLDY    80  67  64 SE12      30.02R
LAREDO         CLEAR     84  71  65 SE18      30.02R
BROWNSVILLE    CLEAR     78  75  90 S6        30.06R
PORT ISABEL    CLEAR     82  73  74 SE12      30.06R
HEBBRONVILLE   CLEAR     78  70  76 SE10      30.06R
MCALLEN        CLEAR     83  72  69 SE13      30.05R
WESLACO        CLEAR     81  75  83 SE7       30.04S
FALFURRIAS     PTCLDY    80  74  81 SE9       30.04R
EDINBURG       PTCLDY    81  75  80 SE7       30.06R
$$



USA.gov is the U.S. government's official web portal to all federal, state and local government web resources and services.